轨道通信卫星FM114星 (ORBCOMM FM114)

导读 | 星芒AI

ORBCOMM FM114 是一颗由 ORBCOMM 公司运营的低轨(LEO)卫星,主要用于提供全球范围的物联网(IoT)和机器对机器(M2M)通信服务。该卫星工作在 L 波段,支持远程监控、资产跟踪和数据采集等应用。作为 ORBCOMM 通信网络的一部分,FM114 与其他卫星协同工作,为全球客户提供可靠的双向数据传输服务,广泛应用于物流、运输、能源和环境监测等领域。

基本信息
目录编号:
41179
目录名称:
ORBCOMM FM 114
国际标识:
2015-081A
轨道中心:
EARTH
卫星名称:
轨道通信卫星FM114星
卫星全名:
轨道通信卫星FM114星 (ORBCOMM FM114)
卫星状态:
在轨 (已飞行3647 天)
发射日期:
2015-12-22 UTC
国别 :
(ORB)
星等 :
--
轨道信息
数据来源 国际轨道数据 AOE轨道数据
星历时间 2025-12-15T04:51:50+0800
1天前
查看轨道信息
2025-12-14T10:00:00+0800
1天前
查看轨道信息
半长轴 7075.97km 7075.98km
偏心率 0.0001788 0.0001639
轨道倾角 47.003° 47.001°
近地点辐角 78.293° 80.804°
升交点赤经 153.257° 156.972°
平近点角 281.815° 108.598°
近地点 696.569km 696.685km
远地点 699.101km 699.005km
周期 98.728分钟 98.728分钟
每日圈数 14.585584 14.585553
详细信息
固有亮度:
8
最大亮度:
6.7
平衡模式:
三轴稳定
覆盖范围:
全球
运营商:
轨道通信公司
运营商所在国:
美国
使用方式:
暂无
卫星简介
轨道通信FM(Orbcomm FM)是一系列低地球轨道通信卫星,由美国卫星通信公司 Orbcomm运营。 截至2015年12月,已有63颗此类卫星绕地球运行。该卫星仍在工作。
2D轨道图
3D轨道图
轨道高度分析图
轨道倾角分析图
轨道综合分析图
查看轨道综合分析图